N1PRS-9 Weather Reports


time (UTC)temp
C
wind
direction
speed
KPH
gust
KPH
rain 1hr
cm
rain 24hr
cm
rain mn
cm
humidity
%
barometer
mb
20260502164031 12 0 0.0 3.2 0.00 0.10 0.10 76 1011.2
20260502163531 12 0 0.0 3.2 0.00 0.10 0.10 74 1011.4
20260502163046 12 0 0.0 3.2 0.00 0.10 0.10 75 1011.3
20260502162531 12 0 0.0 3.2 0.00 0.10 0.10 74 1011.5
20260502162034 12 0 0.0 3.2 0.00 0.10 0.10 74 1011.5
20260502161602 12 182 0.0 3.2 0.00 0.10 0.10 74 1011.4
20260502161038 12 182 0.0 3.2 0.00 0.10 0.10 73 1011.3
20260502160532 12 0 0.0 1.6 0.00 0.10 0.10 73 1011.5
20260502160104 12 0 0.0 1.6 0.00 0.10 0.10 73 1011.5
20260502152033 12 0 0.0 4.8 0.00 0.10 0.10 77 1012.0
20260502151549 12 180 0.0 4.8 0.00 0.10 0.10 75 1011.9
20260502151032 12 178 0.0 3.2 0.00 0.10 0.10 76 1012.0
20260502150532 12 211 0.0 3.2 0.00 0.10 0.10 77 1012.1
20260502130532 10 355 1.6 4.8 0.03 0.10 0.10 90 1012.0
20260502130106 10 0 1.6 4.8 0.03 0.10 0.10 93 1011.9
20260502123533 8 33 1.6 4.8 0.05 0.10 0.10 94 1012.2
20260502123112 8 33 0.0 4.8 0.05 0.10 0.10 94 1012.1
20260502122531 8 0 0.0 3.2 0.05 0.10 0.10 95 1012.3
20260502122034 8 0 0.0 1.6 0.05 0.08 0.08 95 1012.4
20260502121545 8 0 0.0 1.6 0.05 0.08 0.08 95 1012.7
20260502121032 8 0 0.0 0.0 0.05 0.08 0.08 95 1012.6
20260502120532 8 0 0.0 0.0 0.05 0.08 0.08 95 1012.6
20260502115532 8 0 0.0 0.0 0.05 0.08 0.08 94 1012.9
20260502115032 8 0 0.0 0.0 0.03 0.05 0.05 94 1012.8
20260502114553 8 0 0.0 0.0 0.03 0.05 0.05 94 1012.9
20260502114032 8 0 0.0 1.6 0.03 0.05 0.05 94 1012.9
20260502113532 8 0 0.0 1.6 0.03 0.05 0.05 94 1012.9
20260502113046 8 0 0.0 1.6 0.03 0.05 0.05 94 1012.8
20260502112529 8 0 0.0 1.6 0.03 0.05 0.05 94 1012.8
20260502112031 8 0 0.0 1.6 0.00 0.03 0.03 94 1012.9
20260502111545 8 0 0.0 0.0 0.00 0.03 0.03 94 1013.1
20260502111031 8 0 0.0 3.2 0.00 0.03 0.03 94 1012.7
20260502110532 8 0 0.0 3.2 0.00 0.03 0.03 94 1012.8
20260502110050 8 229 0.0 3.2 0.00 0.03 0.03 94 1012.8
20260502105531 8 0 0.0 4.8 0.00 0.03 0.03 93 1012.8
20260502105032 8 0 0.0 4.8 0.00 0.03 0.03 93 1012.8
20260502104545 8 275 1.6 3.2 0.00 0.03 0.03 93 1012.6
20260502104031 8 0 0.0 0.0 0.03 0.03 0.03 93 1012.3
20260502103532 8 0 0.0 0.0 0.03 0.03 0.03 92 1012.1
20260502103040 8 0 0.0 0.0 0.03 0.03 0.03 92 1012.0
20260502102535 8 0 0.0 0.0 0.03 0.03 0.03 92 1012.0
20260502102037 8 0 0.0 0.0 0.03 0.03 0.03 92 1012.0
20260502101554 8 0 0.0 3.2 0.03 0.03 0.03 92 1012.0
20260502101031 8 0 0.0 3.2 0.03 0.03 0.03 91 1011.9
20260502100531 8 0 0.0 0.0 0.03 0.03 0.03 91 1011.9
20260502091028 8 0 0.0 1.6 0.00 0.00 0.00 86 1011.7
20260502090531 8 184 0.0 1.6 0.00 0.00 0.00 86 1011.8
20260502071032 9 0 0.0 1.6 0.00 0.00 0.00 81 1011.6
20260502070534 9 0 0.0 1.6 0.00 0.00 0.00 80 1011.8
20260502070044 9 0 0.0 1.6 0.00 0.00 0.00 79 1011.7
20260502065532 9 0 0.0 0.0 0.00 0.00 0.00 79 1011.8
20260502065033 9 0 0.0 1.6 0.00 0.00 0.00 79 1011.9
20260502064551 9 0 0.0 1.6 0.00 0.00 0.00 79 1011.9
20260502064031 9 0 0.0 0.0 0.00 0.00 0.00 79 1011.8
20260502063536 9 0 0.0 1.6 0.00 0.00 0.00 78 1011.8
20260502063056 9 0 0.0 1.6 0.00 0.00 0.00 78 1011.8
20260502062531 9 208 0.0 0.0 0.00 0.00 0.00 77 1011.7
20260502062030 10 0 0.0 0.0 0.00 0.00 0.00 77 1011.9
20260502061541 10 0 0.0 0.0 0.00 0.00 0.00 77 1011.9
20260502061028 10 0 0.0 3.2 0.00 0.00 0.00 76 1012.0
20260502060533 10 0 0.0 3.2 0.00 0.00 0.00 76 1012.1
20260502060043 10 211 0.0 1.6 0.00 0.00 0.00 76 1012.0
20260502055531 10 0 0.0 1.6 0.00 0.00 0.00 75 1011.8
20260502055032 10 0 0.0 1.6 0.00 0.00 0.00 75 1011.8
20260502054545 10 0 0.0 1.6 0.00 0.00 0.00 74 1011.8
20260502054031 10 0 0.0 1.6 0.00 0.00 0.00 74 1011.7
20260502053532 10 0 0.0 3.2 0.00 0.00 0.00 74 1011.7
20260502053045 10 0 0.0 3.2 0.00 0.00 0.00 74 1012.0
20260502052531 10 0 0.0 4.8 0.00 0.00 0.00 73 1011.9
20260502052032 10 0 0.0 6.4 0.00 0.00 0.00 73 1011.8
20260502051544 10 0 0.0 6.4 0.00 0.00 0.00 73 1011.9
20260502051031 10 0 0.0 6.4 0.00 0.00 0.00 72 1011.9
20260502050531 10 0 0.0 6.4 0.00 0.00 0.00 72 1012.0
20260502050043 10 0 0.0 4.8 0.00 0.00 0.00 72 1012.1
20260502045531 10 0 0.0 4.8 0.00 0.00 0.00 72 1012.1
20260502045033 10 0 0.0 4.8 0.00 0.00 0.00 73 1012.1
20260502044544 10 0 0.0 4.8 0.00 0.00 0.00 72 1012.0
20260502044032 10 0 0.0 4.8 0.00 0.00 0.00 72 1012.1
20260502043533 10 180 0.0 3.2 0.00 0.00 0.00 72 1012.2
20260502043054 10 0 0.0 3.2 0.00 0.00 0.00 72 1012.0
20260502042531 10 0 0.0 3.2 0.00 0.00 0.00 72 1012.0
20260502042035 10 0 0.0 6.4 0.00 0.00 0.00 72 1012.0
20260502041540 10 178 0.0 6.4 0.00 0.00 0.00 73 1012.0
20260502041030 10 0 0.0 1.6 0.00 0.00 0.00 72 1012.0
20260502040531 10 0 0.0 3.2 0.00 0.00 0.00 72 1012.0
20260502040048 10 0 0.0 3.2 0.00 0.00 0.00 72 1012.0
20260502035531 10 184 0.0 3.2 0.00 0.00 0.00 72 1012.0
20260502035031 10 176 0.0 3.2 0.00 0.00 0.00 72 1012.1
20260502034544 10 0 0.0 3.2 0.00 0.00 0.00 72 1012.1
20260502034052 10 177 0.0 3.2 0.00 0.00 0.00 72 1012.0
20260502033535 10 0 0.0 3.2 0.00 0.00 0.00 72 1012.2
20260502033049 10 0 0.0 3.2 0.00 0.00 0.00 72 1012.3
20260502032533 10 0 0.0 4.8 0.00 0.00 0.00 72 1012.3
20260502032033 10 0 0.0 6.4 0.00 0.00 0.00 73 1012.3
20260502031544 10 0 0.0 6.4 0.00 0.00 0.00 72 1012.2
20260502031033 10 0 0.0 3.2 0.00 0.00 0.00 72 1012.2
20260502030533 10 0 0.0 3.2 0.00 0.00 0.00 72 1012.2
20260502030043 10 0 0.0 3.2 0.00 0.00 0.00 72 1012.2
20260502025532 10 169 0.0 3.2 0.00 0.00 0.00 71 1012.2
20260502025036 10 0 0.0 3.2 0.00 0.00 0.00 71 1012.2
20260502024600 10 0 0.0 3.2 0.00 0.00 0.00 71 1012.2
20260502024033 11 0 0.0 3.2 0.00 0.00 0.00 71 1012.2
20260502023532 11 0 0.0 3.2 0.00 0.00 0.00 70 1012.2
20260502023050 11 0 0.0 3.2 0.00 0.00 0.00 70 1012.2
20260502022533 11 0 0.0 3.2 0.00 0.00 0.00 70 1012.2
20260502022036 11 0 0.0 3.2 0.00 0.00 0.00 69 1012.3
20260502021542 11 174 0.0 3.2 0.00 0.00 0.00 69 1012.2
20260502021033 11 0 0.0 3.2 0.00 0.00 0.00 68 1012.3
20260502020534 11 0 0.0 4.8 0.00 0.00 0.00 68 1012.2
20260502020045 11 174 0.0 4.8 0.00 0.00 0.00 67 1012.2
20260502015533 11 0 0.0 4.8 0.00 0.00 0.00 67 1012.2
20260502015033 11 0 0.0 4.8 0.00 0.00 0.00 66 1012.3
20260502014548 11 0 0.0 4.8 0.00 0.00 0.00 66 1012.4
20260502014032 11 181 0.0 3.2 0.00 0.00 0.00 65 1012.2
20260502013532 11 188 0.0 6.4 0.00 0.00 0.00 64 1012.1
20260502013043 11 0 0.0 6.4 0.00 0.00 0.00 64 1012.1
20260502012532 11 173 0.0 4.8 0.00 0.00 0.00 63 1012.1
20260502012033 12 0 0.0 3.2 0.00 0.00 0.00 62 1012.0
20260502011543 12 0 0.0 3.2 0.00 0.00 0.00 62 1012.0
20260502011033 12 173 0.0 6.4 0.00 0.00 0.00 61 1012.0
20260502010531 12 0 0.0 6.4 0.00 0.00 0.00 60 1011.9
20260502010052 12 185 1.6 6.4 0.00 0.00 0.00 59 1011.9
20260502005532 12 0 0.0 6.4 0.00 0.00 0.00 58 1011.8
20260502005036 12 169 0.0 6.4 0.00 0.00 0.00 57 1011.8
20260502004600 12 0 0.0 6.4 0.00 0.00 0.00 55 1011.7
20260502004032 12 0 0.0 6.4 0.00 0.00 0.00 54 1011.5
20260502003533 12 165 0.0 4.8 0.00 0.00 0.00 53 1011.5
20260502003046 12 0 0.0 4.8 0.00 0.00 0.00 50 1011.4
20260502002532 13 0 0.0 1.6 0.00 0.00 0.00 49 1011.3
20260502002033 13 0 0.0 1.6 0.00 0.00 0.00 49 1011.2
20260502001544 13 0 0.0 3.2 0.00 0.00 0.00 49 1011.2
20260502001035 13 0 0.0 3.2 0.00 0.00 0.00 48 1011.1
20260502000532 13 0 0.0 4.8 0.00 0.00 0.00 48 1011.0
20260502000044 13 0 0.0 4.8 0.00 0.00 0.00 48 1011.0
20260501235536 13 0 0.0 9.7 0.00 0.00 0.00 48 1010.9
20260501235033 13 0 0.0 9.7 0.00 0.00 0.00 48 1010.8
20260501234545 13 180 1.6 9.7 0.00 0.00 0.00 47 1010.8
20260501234033 14 0 0.0 4.8 0.00 0.00 0.00 47 1010.7
20260501233533 14 0 0.0 4.8 0.00 0.00 0.00 47 1010.5
20260501233047 14 179 0.0 0.0 0.00 0.00 0.00 45 1010.4
20260501232533 15 0 0.0 0.0 0.00 0.00 0.00 46 1010.2
20260501232033 15 0 0.0 0.0 0.00 0.00 0.00 44 1010.2
20260501231547 15 0 0.0 0.0 0.00 0.00 0.00 43 1010.2
20260501231033 16 0 0.0 3.2 0.00 0.00 0.00 42 1010.2
20260501230534 16 0 0.0 8.0 0.00 0.00 0.00 42 1010.2
20260501230046 16 0 1.6 9.7 0.00 0.00 0.00 40 1010.2
20260501225532 16 0 1.6 9.7 0.00 0.00 0.00 40 1010.1
20260501225033 16 0 1.6 9.7 0.00 0.00 0.00 40 1010.2
20260501224549 17 257 1.6 9.7 0.00 0.00 0.00 38 1010.1
20260501224032 17 230 3.2 9.7 0.00 0.00 0.00 37 1009.9
20260501223532 17 342 3.2 9.7 0.00 0.00 0.00 39 1009.8
20260501223047 17 244 1.6 11.3 0.00 0.00 0.00 38 1009.8
20260501222533 17 0 3.2 14.5 0.00 0.00 0.00 36 1009.9
20260501222032 17 0 3.2 20.9 0.00 0.00 0.00 38 1010.0
20260501221545 18 213 6.4 20.9 0.00 0.00 0.00 35 1010.0
20260501221033 18 268 3.2 9.7 0.00 0.00 0.00 35 1009.8
20260501220533 18 23 0.0 4.8 0.00 0.00 0.00 36 1009.9
20260501220050 18 0 0.0 8.0 0.00 0.00 0.00 36 1009.9
20260501215533 18 0 1.6 14.5 0.00 0.00 0.00 36 1009.9
20260501215033 18 317 3.2 17.7 0.00 0.00 0.00 36 1010.1
20260501214539 18 250 8.0 17.7 0.00 0.00 0.00 36 1010.0
20260501214032 18 296 6.4 17.7 0.00 0.00 0.00 36 1010.1
20260501213532 17 0 1.6 6.4 0.00 0.00 0.00 36 1010.1
20260501213051 17 302 0.0 9.7 0.00 0.00 0.00 40 1010.1
20260501212532 17 0 0.0 9.7 0.00 0.00 0.00 42 1010.0
20260501212032 17 300 1.6 9.7 0.00 0.00 0.00 37 1010.0
20260501211545 17 327 4.8 11.3 0.00 0.00 0.00 35 1009.9
20260501211034 17 301 4.8 19.3 0.00 0.00 0.00 37 1010.0
20260501210533 17 306 6.4 19.3 0.00 0.00 0.00 36 1010.0
20260501210046 17 265 8.0 19.3 0.00 0.00 0.00 36 1010.0
20260501205534 18 17 8.0 19.3 0.00 0.00 0.00 35 1010.0
20260501205030 18 0 3.2 16.1 0.00 0.00 0.00 37 1009.9
20260501204545 18 218 4.8 16.1 0.00 0.00 0.00 38 1010.0
20260501204035 18 256 1.6 17.7 0.00 0.00 0.00 38 1010.0
20260501203533 18 257 4.8 17.7 0.00 0.00 0.00 36 1009.9
20260501203048 18 317 4.8 14.5 0.00 0.00 0.00 36 1009.8
20260501202533 18 235 3.2 11.3 0.00 0.00 0.00 38 1009.9
20260501202036 17 246 3.2 11.3 0.00 0.00 0.00 38 1010.0
20260501201546 17 296 0.0 14.5 0.00 0.00 0.00 38 1009.8
20260501201032 17 243 6.4 14.5 0.00 0.00 0.00 37 1010.0
20260501200535 17 327 3.2 14.5 0.00 0.00 0.00 37 1010.1
20260501200045 17 40 4.8 14.5 0.00 0.00 0.00 37 1009.9
20260501195532 17 269 4.8 19.3 0.00 0.00 0.00 38 1010.0
20260501195032 17 84 6.4 19.3 0.00 0.00 0.00 40 1009.9
20260501194545 17 335 8.0 19.3 0.00 0.00 0.00 37 1010.0
20260501194033 16 325 3.2 19.3 0.00 0.00 0.00 40 1010.0
20260501193532 17 83 9.7 19.3 0.00 0.00 0.00 37 1010.0
20260501193100 17 259 6.4 20.9 0.00 0.00 0.00 36 1010.0
20260501192531 17 290 6.4 20.9 0.00 0.00 0.00 39 1010.1
20260501192032 17 48 4.8 19.3 0.00 0.00 0.00 39 1010.1
20260501191545 17 271 8.0 19.3 0.00 0.00 0.00 38 1010.3
20260501191033 17 296 4.8 16.1 0.00 0.00 0.00 38 1010.5
20260501190535 17 327 3.2 24.1 0.00 0.00 0.00 39 1010.5
20260501190113 17 275 8.0 24.1 0.00 0.00 0.00 39 1010.5
20260501185533 16 236 6.4 19.3 0.00 0.00 0.00 38 1010.6
20260501185035 16 311 6.4 19.3 0.00 0.00 0.00 38 1010.6
20260501184542 16 288 8.0 19.3 0.00 0.00 0.00 38 1010.7
20260501184033 16 248 6.4 20.9 0.00 0.00 0.00 39 1010.6
20260501183533 16 39 4.8 20.9 0.00 0.00 0.00 38 1010.7
20260501183117 16 308 8.0 20.9 0.00 0.00 0.00 38 1010.7
20260501182535 16 348 4.8 16.1 0.00 0.00 0.00 37 1010.7
20260501182033 16 275 8.0 17.7 0.00 0.00 0.00 37 1010.7
20260501181545 16 267 4.8 29.0 0.00 0.00 0.00 39 1010.7
20260501181032 16 327 8.0 29.0 0.00 0.00 0.00 37 1010.8
20260501180532 16 280 8.0 20.9 0.00 0.00 0.00 38 1010.8
20260501180106 16 347 6.4 19.3 0.00 0.00 0.00 37 1010.7
20260501175536 16 270 6.4 22.5 0.00 0.00 0.00 37 1010.6
20260501175034 16 252 8.0 22.5 0.00 0.00 0.00 38 1010.7
20260501174547 15 34 6.4 20.9 0.00 0.00 0.00 40 1010.8
20260501174032 15 284 9.7 20.9 0.00 0.00 0.00 42 1010.7
20260501173532 15 289 3.2 19.3 0.00 0.00 0.00 42 1010.7
20260501173046 15 277 4.8 16.1 0.00 0.00 0.00 44 1010.8
20260501172534 14 235 6.4 14.5 0.00 0.00 0.00 44 1010.8
20260501172033 14 224 6.4 14.5 0.00 0.00 0.00 44 1010.8
20260501171543 13 26 1.6 14.5 0.00 0.00 0.00 44 1011.1
20260501171033 13 352 3.2 14.5 0.00 0.00 0.00 44 1011.0
20260501170536 14 306 6.4 16.1 0.00 0.00 0.00 46 1011.0
20260501170052 14 292 6.4 16.1 0.00 0.00 0.00 44 1011.0
20260501165533 14 19 6.4 16.1 0.00 0.00 0.00 46 1011.1
20260501165033 13 274 1.6 12.9 0.00 0.00 0.00 47 1011.0
20260501164544 13 329 4.8 12.9 0.00 0.00 0.00 49 1011.3